Regional Weather Roundup
Issued by NWS State College, PA

Home | Current Version | Previous Version | Text Only | Print | Product List | Glossary On
Versions: 1 2 3 4 5 6 7 8 9 10 11 12 13 14 15 16 17 18 19 20 21 22 23 24 25 26 27 28 29 30 31 32 33 34 35 36 37 38 39 40 41 42 43 44 45 46 47 48 49 50
000
ASUS41 KCTP 071510
RWRCTP

REGIONAL WEATHER ROUNDUP
NATIONAL WEATHER SERVICE STATE COLLEGE PA
1000 AM EST WED DEC 07 2016

Note: "fair" indicates few or no clouds below 12,000 feet with no
significant weather and/or obstructions to visibility.

* = STATION THAT DOES NOT REPORT PRECIPITATION /E.G. RAIN...SNOW...ETC/
    THUNDER OR FOG.

PAZ002>004-007>009-013>016-020>023-029>032-071600-
WESTERN PENNSYLVANIA

CITY           SKY/WX    TMP DP  RH WIND       PRES   REMARKS
ERIE           CLOUDY    36  27  69 SW16G23   30.02R
MEADVILLE      NOT AVBL
FRANKLIN*        N/A     32  25  74 W7        30.03R
NEW CASTLE     NOT AVBL
BEAVER COUNTY  MOSUNNY   34  28  80 W10G16    30.07R
BUTLER*        SUNNY     34  27  75 W9        30.07S
PITTSBURGH INT NOT AVBL
PITTSBURGH     NOT AVBL
INDIANA*       PTSUNNY   36  32  87 W13       30.06S
LATROBE        MOSUNNY   36  30  80 W12       30.08R
WASHINGTON CO* SUNNY     34  27  75 W8        30.08S
$$

PAZ004>006-010>012-017>019-024>028-033>037-041-042-045-046-049>053-071600-
CENTRAL PENNSYLVANIA

CITY           SKY/WX    TMP DP  RH WIND       PRES   REMARKS
BRADFORD       NOT AVBL
DUBOIS         NOT AVBL
CLEARFIELD     PTSUNNY   36  31  82 W8        30.01S
JOHNSTOWN      NOT AVBL
ALTOONA        NOT AVBL
STATE COLLEGE  NOT AVBL
WILLIAMSPORT   NOT AVBL
SELINSGROVE    NOT AVBL
FT INDIANTOWN  NOT AVBL
CAPITAL CITY   NOT AVBL
HARRISBURG     NOT AVBL
YORK           NOT AVBL
$$

PAZ038>040-043-044-047-048-054-055-060>062-067>071-071600-
EASTERN PENNSYLVANIA

CITY           SKY/WX    TMP DP  RH WIND       PRES   REMARKS
SCRANTON       NOT AVBL
MOUNT POCONO   NOT AVBL
ALLENTOWN      NOT AVBL
QUAKERTOWN*    CLOUDY    39  37  93 NE3       30.00S
READING        NOT AVBL
LANCASTER      NOT AVBL
COATESVILLE    PTSUNNY   39  39 100 NW5       30.02R FOG
POTTSTOWN      NOT AVBL
BLUE BELL      CLOUDY    37  37 100 CALM      29.99S
DOYLESTOWN     NOT AVBL
WILLOW GROVE   NOT AVBL
NORTH PHILA    NOT AVBL
PHILADELPHIA   NOT AVBL
$$



USA.gov is the U.S. government's official web portal to all federal, state and local government web resources and services.